TimeCDT,TemperatureF,Dew PointF,Humidity,Sea Level PressureIn,VisibilityMPH,Wind Direction,Wind SpeedMPH,Gust SpeedMPH,PrecipitationIn,Events,Conditions,WindDirDegrees,DateUTC
12:15 AM,32.0,17.6,55,30.25,10.0,NW,12.7,-,N/A,,Clear,310,2012-10-06 05:15:00
12:35 AM,32.0,17.6,55,30.26,10.0,NW,12.7,-,N/A,,Clear,310,2012-10-06 05:35:00
12:55 AM,32.0,17.6,55,30.26,10.0,NW,12.7,-,N/A,,Clear,310,2012-10-06 05:55:00
1:15 AM,32.0,17.6,55,30.25,10.0,NW,13.8,-,N/A,,Clear,320,2012-10-06 06:15:00
1:35 AM,30.2,17.6,60,30.25,10.0,NW,12.7,-,N/A,,Clear,310,2012-10-06 06:35:00
1:55 AM,30.2,17.6,60,30.26,10.0,NW,12.7,-,N/A,,Clear,310,2012-10-06 06:55:00
2:15 AM,28.4,17.6,64,30.25,10.0,NW,12.7,-,N/A,,Clear,310,2012-10-06 07:15:00
2:35 AM,28.4,19.4,69,30.26,10.0,NW,12.7,-,N/A,,Clear,310,2012-10-06 07:35:00
2:55 AM,28.4,19.4,69,30.25,10.0,WNW,11.5,-,N/A,,Clear,300,2012-10-06 07:55:00
3:15 AM,26.6,17.6,69,30.25,10.0,WNW,11.5,-,N/A,,Clear,290,2012-10-06 08:15:00
3:35 AM,24.8,17.6,74,30.25,10.0,WNW,8.1,-,N/A,,Clear,290,2012-10-06 08:35:00
3:55 AM,23.0,17.6,80,30.25,10.0,WNW,10.4,-,N/A,,Clear,290,2012-10-06 08:55:00
4:35 AM,26.6,19.4,74,30.25,10.0,WNW,11.5,-,N/A,,Clear,300,2012-10-06 09:35:00
4:55 AM,24.8,17.6,74,30.26,10.0,West,9.2,-,N/A,,Clear,280,2012-10-06 09:55:00
5:15 AM,24.8,19.4,80,30.26,10.0,West,11.5,-,N/A,,Partly Cloudy,280,2012-10-06 10:15:00
5:35 AM,26.6,19.4,74,30.25,10.0,WNW,12.7,-,N/A,,Mostly Cloudy,290,2012-10-06 10:35:00
5:55 AM,26.6,19.4,74,30.26,-9999.0,West,11.5,-,N/A,,Overcast,280,2012-10-06 10:55:00
6:15 AM,24.8,19.4,80,30.28,10.0,WNW,10.4,-,N/A,,Scattered Clouds,300,2012-10-06 11:15:00
6:35 AM,24.8,19.4,80,30.29,10.0,WNW,9.2,-,N/A,,Partly Cloudy,290,2012-10-06 11:35:00
6:55 AM,24.8,19.4,80,30.29,10.0,WNW,9.2,-,N/A,,Mostly Cloudy,290,2012-10-06 11:55:00
7:15 AM,26.6,21.2,80,30.29,10.0,West,11.5,-,N/A,,Overcast,270,2012-10-06 12:15:00
7:35 AM,28.4,21.2,74,30.30,10.0,West,10.4,-,N/A,,Overcast,280,2012-10-06 12:35:00
7:55 AM,28.4,23.0,80,30.30,10.0,WNW,11.5,-,N/A,,Overcast,290,2012-10-06 12:55:00
8:15 AM,30.2,23.0,75,30.30,10.0,WNW,12.7,-,N/A,,Overcast,300,2012-10-06 13:15:00
8:35 AM,32.0,23.0,69,30.30,10.0,NW,11.5,-,N/A,,Overcast,310,2012-10-06 13:35:00
9:15 AM,33.8,23.0,65,30.30,10.0,NW,9.2,-,N/A,,Overcast,320,2012-10-06 14:15:00
9:35 AM,33.8,23.0,65,30.30,10.0,NNW,15.0,-,N/A,,Overcast,330,2012-10-06 14:35:00
9:55 AM,35.6,24.8,65,30.30,10.0,NW,15.0,-,N/A,,Overcast,320,2012-10-06 14:55:00
10:15 AM,35.6,24.8,65,30.30,10.0,NNW,13.8,-,N/A,,Overcast,330,2012-10-06 15:15:00
10:35 AM,37.4,24.8,60,30.30,10.0,North,17.3,23.0,N/A,,Overcast,350,2012-10-06 15:35:00
10:55 AM,37.4,24.8,60,30.31,10.0,North,18.4,-,N/A,,Overcast,350,2012-10-06 15:55:00
11:15 AM,37.4,24.8,60,30.31,10.0,NNW,16.1,-,N/A,,Overcast,340,2012-10-06 16:15:00
11:35 AM,37.4,24.8,60,30.31,10.0,NNW,15.0,-,N/A,,Overcast,340,2012-10-06 16:35:00
11:55 AM,39.2,24.8,56,30.31,10.0,NNW,15.0,-,N/A,,Overcast,340,2012-10-06 16:55:00
12:15 PM,39.2,24.8,56,30.30,10.0,NNW,13.8,20.7,N/A,,Overcast,340,2012-10-06 17:15:00
12:35 PM,41.0,24.8,53,30.30,10.0,North,15.0,-,N/A,,Overcast,360,2012-10-06 17:35:00
1:15 PM,42.8,24.8,49,30.29,10.0,NW,16.1,21.9,N/A,,Mostly Cloudy,320,2012-10-06 18:15:00
1:35 PM,42.8,24.8,49,30.29,10.0,NNW,13.8,-,N/A,,Mostly Cloudy,330,2012-10-06 18:35:00
1:55 PM,42.8,23.0,46,30.29,10.0,NW,17.3,24.2,N/A,,Overcast,320,2012-10-06 18:55:00
2:15 PM,41.0,23.0,49,30.28,10.0,NNW,10.4,18.4,N/A,,Overcast,340,2012-10-06 19:15:00
2:35 PM,41.0,23.0,49,30.28,10.0,NW,16.1,-,N/A,,Overcast,320,2012-10-06 19:35:00
2:55 PM,41.0,23.0,49,30.28,-9999.0,NW,11.5,-,N/A,,Overcast,310,2012-10-06 19:55:00
3:15 PM,42.8,23.0,46,30.27,10.0,NW,13.8,20.7,N/A,,Overcast,310,2012-10-06 20:15:00
3:35 PM,42.8,23.0,46,30.27,10.0,NW,12.7,20.7,N/A,,Scattered Clouds,320,2012-10-06 20:35:00
3:55 PM,42.8,21.2,42,30.26,10.0,NW,13.8,-,N/A,,Partly Cloudy,320,2012-10-06 20:55:00
4:15 PM,41.0,21.2,45,30.26,10.0,NNW,10.4,19.6,N/A,,Clear,340,2012-10-06 21:15:00
4:35 PM,42.8,21.2,42,30.26,10.0,NNW,15.0,20.7,N/A,,Scattered Clouds,340,2012-10-06 21:35:00
4:55 PM,41.0,21.2,45,30.25,10.0,NNW,8.1,13.8,N/A,,Scattered Clouds,330,2012-10-06 21:55:00
5:15 PM,42.8,19.4,39,30.26,10.0,NNW,12.7,-,N/A,,Scattered Clouds,340,2012-10-06 22:15:00
5:35 PM,42.8,21.2,42,30.26,10.0,North,11.5,-,N/A,,Mostly Cloudy,360,2012-10-06 22:35:00
5:55 PM,42.8,19.4,39,30.25,10.0,NW,11.5,-,N/A,,Overcast,320,2012-10-06 22:55:00
6:15 PM,42.8,19.4,39,30.25,10.0,NW,11.5,-,N/A,,Mostly Cloudy,320,2012-10-06 23:15:00
6:35 PM,39.2,19.4,45,30.26,10.0,NNW,6.9,-,N/A,,Scattered Clouds,340,2012-10-06 23:35:00
6:55 PM,37.4,19.4,48,30.26,10.0,North,6.9,-,N/A,,Scattered Clouds,360,2012-10-06 23:55:00
7:15 PM,37.4,19.4,48,30.26,10.0,North,4.6,-,N/A,,Partly Cloudy,10,2012-10-07 00:15:00
7:35 PM,35.6,19.4,52,30.26,10.0,North,4.6,-,N/A,,Clear,360,2012-10-07 00:35:00
7:55 PM,35.6,19.4,52,30.27,10.0,North,5.8,-,N/A,,Clear,10,2012-10-07 00:55:00
8:15 PM,33.8,21.2,60,30.27,10.0,North,6.9,-,N/A,,Clear,360,2012-10-07 01:15:00
8:35 PM,33.8,19.4,56,30.27,10.0,North,5.8,-,N/A,,Clear,360,2012-10-07 01:35:00
8:55 PM,33.8,21.2,60,30.28,10.0,North,5.8,-,N/A,,Clear,360,2012-10-07 01:55:00
9:15 PM,33.8,19.4,56,30.27,10.0,North,5.8,-,N/A,,Clear,360,2012-10-07 02:15:00
9:35 PM,33.8,19.4,56,30.27,10.0,North,4.6,-,N/A,,Clear,350,2012-10-07 02:35:00
9:55 PM,33.8,19.4,56,30.28,10.0,North,4.6,-,N/A,,Clear,350,2012-10-07 02:55:00
10:15 PM,33.8,19.4,56,30.28,10.0,North,5.8,-,N/A,,Clear,350,2012-10-07 03:15:00
11:15 PM,32.0,19.4,60,30.28,10.0,NNW,4.6,-,N/A,,Clear,340,2012-10-07 04:15:00
11:35 PM,32.0,19.4,60,30.28,10.0,NNW,5.8,-,N/A,,Clear,340,2012-10-07 04:35:00
11:55 PM,30.2,19.4,64,30.27,10.0,NNW,6.9,-,N/A,,Clear,340,2012-10-07 04:55:00